| time (UTC) | temp C | wind direction | speed KPH | gust KPH | rain 1hr cm | rain 24hr cm | rain mn cm | humidity % | barometer mb |
| 20260906230736 | 10 | 157 | 0.0 | 0.0 | 0.00 | 0.00 | 0.00 | ||
| 20260906230335 | 11 | 157 | 0.0 | 0.0 | 0.00 | 0.00 | 0.00 | ||
| 20260906225933 | 11 | 157 | 0.0 | 0.0 | 0.00 | 0.00 | 0.00 | ||
| 20260906225531 | 11 | 157 | 1.6 | 3.2 | 0.00 | 0.00 | 0.00 | ||
| 20260906225129 | 11 | 157 | 0.0 | 0.0 | 0.00 | 0.00 | 0.00 | ||
| 20260906224728 | 11 | 157 | 3.2 | 4.8 | 0.00 | 0.00 | 0.00 | ||
| 20260906224327 | 11 | 157 | 3.2 | 3.2 | 0.00 | 0.00 | 0.00 | ||
| 20260906223924 | 11 | 157 | 3.2 | 3.2 | 0.00 | 0.00 | 0.00 | ||
| 20260906223516 | 11 | 157 | 3.2 | 3.2 | 0.00 | 0.00 | 0.00 | ||
| 20260906223114 | 11 | 157 | 3.2 | 4.8 | 0.00 | 0.00 | 0.00 | ||
| 20260906222713 | 12 | 157 | 4.8 | 6.4 | 0.00 | 0.00 | 0.00 | ||
| 20260906222311 | 13 | 157 | 4.8 | 9.7 | 0.00 | 0.00 | 0.00 | ||
| 20260906221909 | 13 | 157 | 4.8 | 8.0 | 0.00 | 0.00 | 0.00 | ||
| 20260906221508 | 13 | 137 | 4.8 | 8.0 | 0.00 | 0.00 | 0.00 | ||
| 20260906221106 | 13 | 146 | 4.8 | 8.0 | 0.00 | 0.00 | 0.00 | ||
| 20260906220705 | 13 | 157 | 6.4 | 8.0 | 0.00 | 0.00 | 0.00 | ||
| 20260906220303 | 12 | 157 | 6.4 | 8.0 | 0.00 | 0.00 | 0.00 | ||
| 20260906215902 | 13 | 157 | 6.4 | 11.3 | 0.00 | 0.00 | 0.00 | ||
| 20260906215454 | 13 | 157 | 6.4 | 9.7 | 0.00 | 0.00 | 0.00 | ||
| 20260906215052 | 13 | 153 | 6.4 | 9.7 | 0.00 | 0.00 | 0.00 | ||
| 20260906214650 | 14 | 144 | 4.8 | 8.0 | 0.00 | 0.00 | 0.00 | ||
| 20260906214249 | 14 | 141 | 6.4 | 9.7 | 0.00 | 0.00 | 0.00 | ||
| 20260906213847 | 13 | 153 | 6.4 | 8.0 | 0.00 | 0.00 | 0.00 | ||
| 20260906213446 | 13 | 157 | 6.4 | 8.0 | 0.00 | 0.00 | 0.00 | ||
| 20260906212642 | 13 | 153 | 4.8 | 11.3 | 0.00 | 0.00 | 0.00 | ||
| 20260906212241 | 12 | 157 | 3.2 | 4.8 | 0.00 | 0.00 | 0.00 | ||
| 20260906211839 | 13 | 157 | 4.8 | 6.4 | 0.00 | 0.00 | 0.00 | ||
| 20260906211430 | 13 | 157 | 4.8 | 6.4 | 0.00 | 0.00 | 0.00 | ||
| 20260906211028 | 12 | 157 | 1.6 | 3.2 | 0.00 | 0.00 | 0.00 | ||
| 20260906210627 | 13 | 157 | 3.2 | 4.8 | 0.00 | 0.00 | 0.00 | ||
| 20260906210226 | 13 | 157 | 3.2 | 6.4 | 0.00 | 0.00 | 0.00 | ||
| 20260906205824 | 12 | 157 | 1.6 | 3.2 | 0.00 | 0.00 | 0.00 | ||
| 20260906205422 | 12 | 157 | 1.6 | 4.8 | 0.00 | 0.00 | 0.00 | ||
| 20260906205020 | 12 | 157 | 1.6 | 3.2 | 0.00 | 0.00 | 0.00 | ||
| 20260906204619 | 12 | 157 | 1.6 | 3.2 | 0.00 | 0.00 | 0.00 | ||
| 20260906204218 | 12 | 157 | 3.2 | 4.8 | 0.00 | 0.00 | 0.00 | ||
| 20260906203815 | 12 | 157 | 1.6 | 4.8 | 0.00 | 0.00 | 0.00 | ||
| 20260906203407 | 12 | 136 | 3.2 | 6.4 | 0.00 | 0.00 | 0.00 | ||
| 20260906203005 | 13 | 21 | 1.6 | 3.2 | 0.00 | 0.00 | 0.00 | ||
| 20260906202604 | 13 | 21 | 3.2 | 4.8 | 0.00 | 0.00 | 0.00 | ||
| 20260906202202 | 13 | 21 | 1.6 | 3.2 | 0.00 | 0.00 | 0.00 | ||
| 20260906201800 | 12 | 21 | 3.2 | 4.8 | 0.00 | 0.00 | 0.00 | ||
| 20260906201359 | 13 | 21 | 3.2 | 4.8 | 0.00 | 0.00 | 0.00 | ||
| 20260906200958 | 12 | 21 | 1.6 | 3.2 | 0.00 | 0.00 | 0.00 | ||
| 20260906200555 | 12 | 21 | 3.2 | 3.2 | 0.00 | 0.00 | 0.00 | ||
| 20260906200154 | 12 | 21 | 3.2 | 3.2 | 0.00 | 0.00 | 0.00 | ||
| 20260906195752 | 12 | 21 | 3.2 | 3.2 | 0.00 | 0.00 | 0.00 | ||
| 20260906195345 | 13 | 21 | 1.6 | 3.2 | 0.00 | 0.00 | 0.00 | ||
| 20260906194943 | 13 | 21 | 0.0 | 0.0 | 0.00 | 0.00 | 0.00 | ||
| 20260906194541 | 13 | 21 | 0.0 | 0.0 | 0.00 | 0.00 | 0.00 | ||
| 20260906194139 | 13 | 21 | 0.0 | 0.0 | 0.00 | 0.00 | 0.00 | ||
| 20260906193737 | 13 | 21 | 0.0 | 0.0 | 0.00 | 0.00 | 0.00 | ||
| 20260906193336 | 13 | 21 | 0.0 | 1.6 | 0.00 | 0.00 | 0.00 | ||
| 20260906192933 | 14 | 21 | 1.6 | 3.2 | 0.00 | 0.00 | 0.00 | ||
| 20260906192532 | 14 | 21 | 1.6 | 3.2 | 0.00 | 0.00 | 0.00 | ||
| 20260906192131 | 14 | 21 | 0.0 | 3.2 | 0.00 | 0.00 | 0.00 | ||
| 20260906191730 | 14 | 21 | 1.6 | 3.2 | 0.00 | 0.00 | 0.00 | ||
| 20260906191320 | 14 | 21 | 3.2 | 3.2 | 0.00 | 0.00 | 0.00 | ||
| 20260906190918 | 15 | 21 | 3.2 | 3.2 | 0.00 | 0.00 | 0.00 | ||
| 20260906190517 | 15 | 21 | 3.2 | 3.2 | 0.00 | 0.00 | 0.00 | ||
| 20260906190116 | 14 | 21 | 3.2 | 4.8 | 0.00 | 0.00 | 0.00 | ||
| 20260906185712 | 14 | 21 | 1.6 | 3.2 | 0.00 | 0.00 | 0.00 | ||
| 20260906185310 | 15 | 21 | 0.0 | 1.6 | 0.00 | 0.00 | 0.00 | ||
| 20260906184908 | 15 | 21 | 0.0 | 0.0 | 0.00 | 0.00 | 0.00 | ||
| 20260906184508 | 15 | 21 | 1.6 | 3.2 | 0.00 | 0.00 | 0.00 | ||
| 20260906184107 | 15 | 21 | 1.6 | 4.8 | 0.00 | 0.00 | 0.00 | ||
| 20260906183703 | 15 | 21 | 3.2 | 3.2 | 0.00 | 0.00 | 0.00 | ||
| 20260906183256 | 15 | 21 | 3.2 | 4.8 | 0.00 | 0.00 | 0.00 | ||
| 20260906182854 | 16 | 21 | 3.2 | 3.2 | 0.00 | 0.00 | 0.00 | ||
| 20260906182453 | 16 | 21 | 1.6 | 3.2 | 0.00 | 0.00 | 0.00 | ||
| 20260906182051 | 16 | 21 | 0.0 | 3.2 | 0.00 | 0.00 | 0.00 | ||
| 20260906181649 | 16 | 21 | 1.6 | 3.2 | 0.00 | 0.00 | 0.00 | ||
| 20260906181248 | 16 | 21 | 3.2 | 3.2 | 0.00 | 0.00 | 0.00 | ||
| 20260906180846 | 16 | 21 | 1.6 | 3.2 | 0.00 | 0.00 | 0.00 | ||
| 20260906180444 | 16 | 6 | 3.2 | 6.4 | 0.00 | 0.00 | 0.00 | ||
| 20260906180043 | 16 | 0 | 1.6 | 4.8 | 0.00 | 0.00 | 0.00 | ||
| 20260906175641 | 16 | 0 | 3.2 | 6.4 | 0.00 | 0.00 | 0.00 | ||
| 20260906175233 | 16 | 13 | 1.6 | 8.0 | 0.00 | 0.00 | 0.00 | ||
| 20260906174830 | 16 | 2 | 1.6 | 3.2 | 0.00 | 0.00 | 0.00 | ||
| 20260906174429 | 16 | 21 | 1.6 | 3.2 | 0.00 | 0.00 | 0.00 | ||
| 20260906174028 | 16 | 5 | 1.6 | 4.8 | 0.00 | 0.00 | 0.00 | ||
| 20260906173626 | 17 | 21 | 1.6 | 4.8 | 0.00 | 0.00 | 0.00 | ||
| 20260906173225 | 17 | 16 | 4.8 | 9.7 | 0.00 | 0.00 | 0.00 | ||
| 20260906172822 | 17 | 20 | 3.2 | 6.4 | 0.00 | 0.00 | 0.00 | ||
| 20260906172421 | 17 | 21 | 3.2 | 4.8 | 0.00 | 0.00 | 0.00 | ||
| 20260906172020 | 17 | 21 | 3.2 | 6.4 | 0.00 | 0.00 | 0.00 | ||
| 20260906171619 | 17 | 0 | 1.6 | 4.8 | 0.00 | 0.00 | 0.00 | ||
| 20260906171209 | 18 | 359 | 4.8 | 8.0 | 0.00 | 0.00 | 0.00 | ||
| 20260906170808 | 18 | 0 | 3.2 | 4.8 | 0.00 | 0.00 | 0.00 | ||
| 20260906170407 | 18 | 0 | 1.6 | 4.8 | 0.00 | 0.00 | 0.00 | ||
| 20260906165603 | 18 | 0 | 1.6 | 3.2 | 0.00 | 0.00 | 0.00 | ||
| 20260906165202 | 18 | 358 | 3.2 | 4.8 | 0.00 | 0.00 | 0.00 | ||
| 20260906164800 | 18 | 0 | 3.2 | 6.4 | 0.00 | 0.00 | 0.00 | ||
| 20260906164359 | 20 | 341 | 4.8 | 9.7 | 0.00 | 0.00 | 0.00 | ||
| 20260906163957 | 20 | 340 | 4.8 | 9.7 | 0.00 | 0.00 | 0.00 | ||
| 20260906163555 | 22 | 318 | 1.6 | 6.4 | 0.00 | 0.00 | 0.00 | ||
| 20260906163147 | 22 | 308 | 3.2 | 6.4 | 0.00 | 0.00 | 0.00 | ||
| 20260906162745 | 22 | 325 | 6.4 | 9.7 | 0.00 | 0.00 | 0.00 | ||
| 20260906162344 | 22 | 324 | 6.4 | 9.7 | 0.00 | 0.00 | 0.00 | ||
| 20260906161942 | 22 | 322 | 3.2 | 6.4 | 0.00 | 0.00 | 0.00 | ||
| 20260906161540 | 22 | 299 | 6.4 | 9.7 | 0.00 | 0.00 | 0.00 | ||
| 20260906161139 | 21 | 317 | 6.4 | 9.7 | 0.00 | 0.00 | 0.00 | ||
| 20260906160737 | 21 | 315 | 4.8 | 14.5 | 0.00 | 0.00 | 0.00 | ||
| 20260906155934 | 21 | 317 | 4.8 | 11.3 | 0.00 | 0.00 | 0.00 | ||
| 20260906155532 | 21 | 314 | 4.8 | 8.0 | 0.00 | 0.00 | 0.00 | ||
| 20260906155124 | 21 | 301 | 3.2 | 8.0 | 0.00 | 0.00 | 0.00 | ||
| 20260906154721 | 20 | 314 | 6.4 | 9.7 | 0.00 | 0.00 | 0.00 | ||
| 20260906154320 | 20 | 11 | 4.8 | 11.3 | 0.00 | 0.00 | 0.00 | ||
| 20260906153919 | 20 | 302 | 3.2 | 9.7 | 0.00 | 0.00 | 0.00 | ||
| 20260906153517 | 20 | 308 | 6.4 | 9.7 | 0.00 | 0.00 | 0.00 | ||
| 20260906153115 | 20 | 304 | 8.0 | 16.1 | 0.00 | 0.00 | 0.00 | ||
| 20260906152713 | 21 | 291 | 6.4 | 11.3 | 0.00 | 0.00 | 0.00 | ||
| 20260906152312 | 21 | 350 | 3.2 | 9.7 | 0.00 | 0.00 | 0.00 | ||
| 20260906151911 | 21 | 302 | 3.2 | 9.7 | 0.00 | 0.00 | 0.00 | ||
| 20260906151510 | 21 | 299 | 4.8 | 9.7 | 0.00 | 0.00 | 0.00 | ||
| 20260906150659 | 20 | 293 | 8.0 | 14.5 | 0.00 | 0.00 | 0.00 | ||
| 20260906150258 | 21 | 291 | 9.7 | 17.7 | 0.00 | 0.00 | 0.00 | ||
| 20260906145857 | 21 | 313 | 6.4 | 9.7 | 0.00 | 0.00 | 0.00 | ||
| 20260906145454 | 21 | 343 | 6.4 | 11.3 | 0.00 | 0.00 | 0.00 | ||
| 20260906145053 | 21 | 358 | 4.8 | 8.0 | 0.00 | 0.00 | 0.00 | ||
| 20260906144651 | 21 | 301 | 4.8 | 14.5 | 0.00 | 0.00 | 0.00 | ||
| 20260906144250 | 21 | 320 | 6.4 | 11.3 | 0.00 | 0.00 | 0.00 | ||
| 20260906143848 | 20 | 353 | 6.4 | 14.5 | 0.00 | 0.00 | 0.00 | ||
| 20260906143446 | 21 | 337 | 6.4 | 12.9 | 0.00 | 0.00 | 0.00 | ||
| 20260906143038 | 21 | 308 | 6.4 | 16.1 | 0.00 | 0.00 | 0.00 | ||
| 20260906142636 | 20 | 322 | 8.0 | 16.1 | 0.00 | 0.00 | 0.00 | ||
| 20260906142234 | 20 | 304 | 11.3 | 22.5 | 0.00 | 0.00 | 0.00 | ||
| 20260906141833 | 21 | 302 | 9.7 | 17.7 | 0.00 | 0.00 | 0.00 | ||
| 20260906141431 | 20 | 332 | 6.4 | 11.3 | 0.00 | 0.00 | 0.00 | ||
| 20260906141030 | 20 | 300 | 8.0 | 14.5 | 0.00 | 0.00 | 0.00 | ||
| 20260906140628 | 20 | 318 | 9.7 | 19.3 | 0.00 | 0.00 | 0.00 | ||
| 20260906140225 | 20 | 313 | 11.3 | 19.3 | 0.00 | 0.00 | 0.00 | ||
| 20260906135824 | 21 | 297 | 4.8 | 9.7 | 0.00 | 0.00 | 0.00 | ||
| 20260906135422 | 21 | 302 | 4.8 | 9.7 | 0.00 | 0.00 | 0.00 | ||
| 20260906135014 | 21 | 299 | 8.0 | 14.5 | 0.00 | 0.00 | 0.00 | ||
| 20260906134611 | 21 | 311 | 6.4 | 12.9 | 0.00 | 0.00 | 0.00 | ||
| 20260906134210 | 21 | 251 | 4.8 | 8.0 | 0.00 | 0.00 | 0.00 | ||
| 20260906133809 | 21 | 293 | 4.8 | 8.0 | 0.00 | 0.00 | 0.00 | ||
| 20260906133407 | 21 | 302 | 12.9 | 20.9 | 0.00 | 0.00 | 0.00 | ||
| 20260906133005 | 21 | 306 | 8.0 | 16.1 | 0.00 | 0.00 | 0.00 | ||
| 20260906132603 | 20 | 310 | 11.3 | 16.1 | 0.00 | 0.00 | 0.00 | ||
| 20260906132202 | 20 | 307 | 6.4 | 11.3 | 0.00 | 0.00 | 0.00 | ||
| 20260906131801 | 20 | 314 | 6.4 | 12.9 | 0.00 | 0.00 | 0.00 | ||
| 20260906131358 | 20 | 331 | 4.8 | 12.9 | 0.00 | 0.00 | 0.00 | ||
| 20260906130950 | 20 | 310 | 4.8 | 9.7 | 0.00 | 0.00 | 0.00 | ||
| 20260906130548 | 21 | 315 | 8.0 | 14.5 | 0.00 | 0.00 | 0.00 | ||
| 20260906130147 | 20 | 319 | 9.7 | 16.1 | 0.00 | 0.00 | 0.00 | ||
| 20260906125746 | 21 | 325 | 9.7 | 16.1 | 0.00 | 0.00 | 0.00 | ||
| 20260906125343 | 20 | 320 | 9.7 | 16.1 | 0.00 | 0.00 | 0.00 | ||
| 20260906124942 | 20 | 315 | 9.7 | 19.3 | 0.00 | 0.00 | 0.00 | ||
| 20260906124541 | 20 | 302 | 11.3 | 16.1 | 0.00 | 0.00 | 0.00 | ||
| 20260906124140 | 20 | 287 | 9.7 | 14.5 | 0.00 | 0.00 | 0.00 | ||
| 20260906123737 | 20 | 311 | 8.0 | 14.5 | 0.00 | 0.00 | 0.00 | ||
| 20260906123336 | 21 | 330 | 8.0 | 14.5 | 0.00 | 0.00 | 0.00 | ||
| 20260906122928 | 21 | 336 | 8.0 | 17.7 | 0.00 | 0.00 | 0.00 | ||
| 20260906122526 | 21 | 314 | 9.7 | 17.7 | 0.00 | 0.00 | 0.00 | ||
| 20260906122124 | 21 | 301 | 11.3 | 25.7 | 0.00 | 0.00 | 0.00 | ||
| 20260906121723 | 21 | 287 | 12.9 | 19.3 | 0.00 | 0.00 | 0.00 | ||
| 20260906121321 | 20 | 289 | 8.0 | 12.9 | 0.00 | 0.00 | 0.00 | ||
| 20260906120920 | 20 | 289 | 11.3 | 16.1 | 0.00 | 0.00 | 0.00 | ||
| 20260906120517 | 20 | 277 | 14.5 | 25.7 | 0.00 | 0.00 | 0.00 | ||
| 20260906120116 | 20 | 279 | 12.9 | 19.3 | 0.00 | 0.00 | 0.00 | ||
| 20260906115715 | 20 | 327 | 11.3 | 19.3 | 0.00 | 0.00 | 0.00 | ||
| 20260906115313 | 20 | 313 | 14.5 | 25.7 | 0.00 | 0.00 | 0.00 | ||
| 20260906114905 | 20 | 294 | 12.9 | 22.5 | 0.00 | 0.00 | 0.00 | ||
| 20260906114502 | 20 | 303 | 14.5 | 22.5 | 0.00 | 0.00 | 0.00 | ||
| 20260906114101 | 20 | 309 | 11.3 | 19.3 | 0.00 | 0.00 | 0.00 | ||
| 20260906113700 | 19 | 277 | 12.9 | 17.7 | 0.00 | 0.00 | 0.00 | ||
| 20260906113258 | 19 | 296 | 12.9 | 17.7 | 0.00 | 0.00 | 0.00 | ||
| 20260906112856 | 19 | 281 | 16.1 | 29.0 | 0.00 | 0.00 | 0.00 | ||
| 20260906112454 | 20 | 267 | 11.3 | 17.7 | 0.00 | 0.00 | 0.00 | ||
| 20260906112053 | 20 | 321 | 8.0 | 17.7 | 0.00 | 0.00 | 0.00 | ||
| 20260906111652 | 19 | 294 | 9.7 | 19.3 | 0.00 | 0.00 | 0.00 | ||
| 20260906111249 | 19 | 295 | 12.9 | 24.1 | 0.00 | 0.00 | 0.00 | ||
| 20260906110841 | 18 | 294 | 11.3 | 16.1 | 0.00 | 0.00 | 0.00 | ||
| 20260906110439 | 18 | 302 | 16.1 | 22.5 | 0.00 | 0.00 | 0.00 | ||
| 20260906110038 | 20 | 288 | 16.1 | 32.2 | 0.00 | 0.00 | 0.00 | ||
| 20260906105636 | 20 | 287 | 8.0 | 12.9 | 0.00 | 0.00 | 0.00 | ||
| 20260906104833 | 18 | 286 | 12.9 | 19.3 | 0.00 | 0.00 | 0.00 | ||
| 20260906104432 | 19 | 282 | 6.4 | 14.5 | 0.00 | 0.00 | 0.00 | ||
| 20260906104031 | 18 | 288 | 9.7 | 16.1 | 0.00 | 0.00 | 0.00 | ||
| 20260906103628 | 18 | 301 | 14.5 | 24.1 | 0.00 | 0.00 | 0.00 | ||
| 20260906103227 | 20 | 300 | 11.3 | 22.5 | 0.00 | 0.00 | 0.00 | ||
| 20260906102819 | 19 | 309 | 8.0 | 16.1 | 0.00 | 0.00 | 0.00 | ||
| 20260906102417 | 18 | 304 | 11.3 | 17.7 | 0.00 | 0.00 | 0.00 | ||
| 20260906102015 | 17 | 310 | 11.3 | 19.3 | 0.00 | 0.00 | 0.00 | ||
| 20260906101614 | 18 | 303 | 12.9 | 22.5 | 0.00 | 0.00 | 0.00 | ||
| 20260906101212 | 18 | 332 | 8.0 | 14.5 | 0.00 | 0.00 | 0.00 | ||
| 20260906100811 | 20 | 318 | 6.4 | 11.3 | 0.00 | 0.00 | 0.00 | ||
| 20260906100408 | 19 | 304 | 4.8 | 11.3 | 0.00 | 0.00 | 0.00 | ||
| 20260906100007 | 17 | 301 | 11.3 | 16.1 | 0.00 | 0.00 | 0.00 | ||
| 20260906095606 | 18 | 322 | 9.7 | 16.1 | 0.00 | 0.00 | 0.00 | ||
| 20260906095204 | 18 | 301 | 11.3 | 17.7 | 0.00 | 0.00 | 0.00 | ||
| 20260906094755 | 18 | 325 | 11.3 | 20.9 | 0.00 | 0.00 | 0.00 | ||
| 20260906094353 | 18 | 297 | 8.0 | 14.5 | 0.00 | 0.00 | 0.00 | ||
| 20260906093952 | 18 | 285 | 11.3 | 17.7 | 0.00 | 0.00 | 0.00 | ||
| 20260906093551 | 17 | 314 | 11.3 | 19.3 | 0.00 | 0.00 | 0.00 | ||
| 20260906093149 | 18 | 307 | 12.9 | 19.3 | 0.00 | 0.00 | 0.00 | ||
| 20260906092747 | 20 | 304 | 8.0 | 19.3 | 0.00 | 0.00 | 0.00 | ||
| 20260906092345 | 19 | 299 | 6.4 | 11.3 | 0.00 | 0.00 | 0.00 | ||
| 20260906091944 | 18 | 289 | 12.9 | 17.7 | 0.00 | 0.00 | 0.00 | ||
| 20260906091543 | 17 | 300 | 8.0 | 11.3 | 0.00 | 0.00 | 0.00 | ||
| 20260906091140 | 17 | 314 | 8.0 | 19.3 | 0.00 | 0.00 | 0.00 | ||
| 20260906090733 | 17 | 331 | 8.0 | 14.5 | 0.00 | 0.00 | 0.00 | ||
| 20260906090331 | 18 | 297 | 14.5 | 24.1 | 0.00 | 0.00 | 0.00 | ||
| 20260906085930 | 18 | 295 | 11.3 | 17.7 | 0.00 | 0.00 | 0.00 | ||
| 20260906085528 | 17 | 297 | 12.9 | 22.5 | 0.00 | 0.00 | 0.00 | ||
| 20260906085126 | 18 | 296 | 11.3 | 20.9 | 0.00 | 0.00 | 0.00 | ||
| 20260906084725 | 18 | 287 | 11.3 | 16.1 | 0.00 | 0.00 | 0.00 | ||
| 20260906084323 | 18 | 291 | 17.7 | 29.0 | 0.00 | 0.00 | 0.00 | ||
| 20260906083921 | 18 | 303 | 11.3 | 17.7 | 0.00 | 0.00 | 0.00 | ||
| 20260906083520 | 18 | 296 | 14.5 | 20.9 | 0.00 | 0.00 | 0.00 | ||
| 20260906083118 | 17 | 292 | 9.7 | 16.1 | 0.00 | 0.00 | 0.00 | ||
| 20260906082710 | 18 | 319 | 9.7 | 16.1 | 0.00 | 0.00 | 0.00 | ||
| 20260906082308 | 18 | 314 | 6.4 | 12.9 | 0.00 | 0.00 | 0.00 | ||
| 20260906081906 | 17 | 311 | 12.9 | 19.3 | 0.00 | 0.00 | 0.00 | ||
| 20260906081504 | 17 | 321 | 14.5 | 27.4 | 0.00 | 0.00 | 0.00 | ||
| 20260906081102 | 17 | 309 | 11.3 | 22.5 | 0.00 | 0.00 | 0.00 | ||
| 20260906080701 | 17 | 304 | 11.3 | 20.9 | 0.00 | 0.00 | 0.00 | ||
| 20260906080258 | 17 | 302 | 12.9 | 20.9 | 0.00 | 0.00 | 0.00 | ||
| 20260906075858 | 17 | 288 | 11.3 | 16.1 | 0.00 | 0.00 | 0.00 | ||
| 20260906075456 | 17 | 296 | 14.5 | 22.5 | 0.00 | 0.00 | 0.00 | ||
| 20260906075055 | 17 | 301 | 9.7 | 16.1 | 0.00 | 0.00 | 0.00 | ||
| 20260906074645 | 18 | 310 | 9.7 | 20.9 | 0.00 | 0.00 | 0.00 | ||
| 20260906074244 | 17 | 315 | 12.9 | 17.7 | 0.00 | 0.00 | 0.00 | ||
| 20260906073843 | 17 | 310 | 11.3 | 16.1 | 0.00 | 0.00 | 0.00 | ||
| 20260906073442 | 17 | 306 | 8.0 | 14.5 | 0.00 | 0.00 | 0.00 | ||
| 20260906073039 | 16 | 303 | 9.7 | 16.1 | 0.00 | 0.00 | 0.00 | ||
| 20260906072638 | 16 | 299 | 9.7 | 16.1 | 0.00 | 0.00 | 0.00 | ||
| 20260906072236 | 17 | 314 | 8.0 | 14.5 | 0.00 | 0.00 | 0.00 | ||
| 20260906071835 | 17 | 285 | 8.0 | 16.1 | 0.00 | 0.00 | 0.00 | ||
| 20260906071434 | 17 | 300 | 11.3 | 16.1 | 0.00 | 0.00 | 0.00 | ||
| 20260906071031 | 16 | 294 | 11.3 | 19.3 | 0.00 | 0.00 | 0.00 | ||
| 20260906070623 | 17 | 282 | 12.9 | 19.3 | 0.00 | 0.00 | 0.00 | ||
| 20260906070221 | 16 | 299 | 8.0 | 14.5 | 0.00 | 0.00 | 0.00 | ||
| 20260906065820 | 16 | 293 | 9.7 | 19.3 | 0.00 | 0.00 | 0.00 | ||
| 20260906065418 | 16 | 294 | 11.3 | 14.5 | 0.00 | 0.00 | 0.00 | ||
| 20260906065016 | 17 | 291 | 6.4 | 11.3 | 0.00 | 0.00 | 0.00 | ||
| 20260906064615 | 17 | 279 | 8.0 | 12.9 | 0.00 | 0.00 | 0.00 | ||
| 20260906064213 | 17 | 277 | 11.3 | 16.1 | 0.00 | 0.00 | 0.00 | ||
| 20260906063811 | 17 | 288 | 14.5 | 19.3 | 0.00 | 0.00 | 0.00 | ||
| 20260906063410 | 17 | 293 | 9.7 | 16.1 | 0.00 | 0.00 | 0.00 | ||
| 20260906063008 | 16 | 279 | 14.5 | 22.5 | 0.00 | 0.00 | 0.00 | ||
| 20260906062600 | 17 | 276 | 11.3 | 22.5 | 0.00 | 0.00 | 0.00 | ||
| 20260906062158 | 17 | 288 | 8.0 | 14.5 | 0.00 | 0.00 | 0.00 | ||
| 20260906061756 | 17 | 275 | 6.4 | 11.3 | 0.00 | 0.00 | 0.00 | ||
| 20260906061355 | 17 | 283 | 8.0 | 12.9 | 0.00 | 0.00 | 0.00 | ||
| 20260906060954 | 16 | 259 | 6.4 | 12.9 | 0.00 | 0.00 | 0.00 | ||
| 20260906060553 | 16 | 270 | 6.4 | 12.9 | 0.00 | 0.00 | 0.00 | ||
| 20260906055749 | 16 | 276 | 8.0 | 12.9 | 0.00 | 0.00 | 0.00 | ||
| 20260906055348 | 15 | 270 | 9.7 | 12.9 | 0.00 | 0.00 | 0.00 | ||
| 20260906054946 | 15 | 269 | 11.3 | 14.5 | 0.00 | 0.00 | 0.00 | ||
| 20260906054537 | 16 | 255 | 8.0 | 14.5 | 0.00 | 0.00 | 0.00 | ||
| 20260906054135 | 16 | 252 | 6.4 | 9.7 | 0.00 | 0.00 | 0.00 | ||
| 20260906053734 | 16 | 268 | 8.0 | 14.5 | 0.00 | 0.00 | 0.00 | ||
| 20260906053333 | 17 | 255 | 6.4 | 11.3 | 0.00 | 0.00 | 0.00 | ||
| 20260906052930 | 17 | 246 | 6.4 | 11.3 | 0.00 | 0.00 | 0.00 | ||
| 20260906052529 | 16 | 248 | 4.8 | 8.0 | 0.00 | 0.00 | 0.00 | ||
| 20260906052127 | 15 | 270 | 0.0 | 3.2 | 0.00 | 0.00 | 0.00 | ||
| 20260906051726 | 16 | 272 | 3.2 | 3.2 | 0.00 | 0.00 | 0.00 | ||
| 20260906051324 | 16 | 292 | 0.0 | 3.2 | 0.00 | 0.00 | 0.00 | ||
| 20260906050922 | 16 | 292 | 0.0 | 3.2 | 0.00 | 0.00 | 0.00 | ||
| 20260906050514 | 15 | 292 | 0.0 | 3.2 | 0.00 | 0.00 | 0.00 | ||
| 20260906050113 | 13 | 292 | 0.0 | 0.0 | 0.00 | 0.00 | 0.00 | ||
| 20260906045711 | 14 | 292 | 0.0 | 0.0 | 0.00 | 0.00 | 0.00 | ||
| 20260906045309 | 14 | 292 | 0.0 | 0.0 | 0.00 | 0.00 | 0.00 | ||
| 20260906044908 | 14 | 270 | 0.0 | 0.0 | 0.00 | 0.00 | 0.00 | ||
| 20260906044507 | 14 | 270 | 0.0 | 3.2 | 0.00 | 0.00 | 0.00 | ||
| 20260906044105 | 14 | 270 | 0.0 | 0.0 | 0.00 | 0.00 | 0.00 | ||
| 20260906043703 | 15 | 270 | 0.0 | 1.6 | 0.00 | 0.00 | 0.00 | ||
| 20260906043302 | 15 | 270 | 0.0 | 0.0 | 0.00 | 0.00 | 0.00 | ||
| 20260906042900 | 17 | 270 | 0.0 | 3.2 | 0.00 | 0.00 | 0.00 | ||
| 20260906042452 | 15 | 292 | 4.8 | 8.0 | 0.00 | 0.00 | 0.00 | ||
| 20260906042049 | 14 | 270 | 1.6 | 4.8 | 0.00 | 0.00 | 0.00 | ||
| 20260906041648 | 15 | 270 | 3.2 | 4.8 | 0.00 | 0.00 | 0.00 | ||
| 20260906041247 | 15 | 270 | 3.2 | 6.4 | 0.00 | 0.00 | 0.00 | ||
| 20260906040845 | 15 | 270 | 4.8 | 6.4 | 0.00 | 0.00 | 0.00 | ||
| 20260906040443 | 14 | 270 | 3.2 | 8.0 | 0.00 | 0.00 | 0.00 | ||
| 20260906040041 | 15 | 270 | 3.2 | 4.8 | 0.00 | 0.00 | 0.00 | ||
| 20260906035640 | 15 | 271 | 4.8 | 8.0 | 0.00 | 0.00 | 0.00 | ||
| 20260906035239 | 15 | 283 | 4.8 | 6.4 | 0.00 | 0.00 | 0.00 | ||
| 20260906034837 | 15 | 282 | 6.4 | 9.7 | 0.00 | 0.00 | 0.00 | ||
| 20260906034428 | 15 | 273 | 6.4 | 9.7 | 0.00 | 0.00 | 0.00 | ||
| 20260906034026 | 15 | 284 | 6.4 | 11.3 | 0.00 | 0.00 | 0.00 | ||
| 20260906033625 | 15 | 275 | 3.2 | 6.4 | 0.00 | 0.00 | 0.00 | ||
| 20260906033224 | 15 | 284 | 4.8 | 9.7 | 0.00 | 0.00 | 0.00 | ||
| 20260906032821 | 16 | 272 | 6.4 | 11.3 | 0.00 | 0.00 | 0.00 | ||
| 20260906032419 | 16 | 277 | 6.4 | 9.7 | 0.00 | 0.00 | 0.00 | ||
| 20260906032017 | 16 | 282 | 4.8 | 9.7 | 0.00 | 0.00 | 0.00 | ||
| 20260906031616 | 16 | 272 | 6.4 | 14.5 | 0.00 | 0.00 | 0.00 | ||
| 20260906031213 | 16 | 273 | 9.7 | 12.9 | 0.00 | 0.00 | 0.00 | ||
| 20260906030812 | 15 | 283 | 8.0 | 16.1 | 0.00 | 0.00 | 0.00 | ||
| 20260906030404 | 15 | 284 | 9.7 | 14.5 | 0.00 | 0.00 | 0.00 | ||
| 20260906030002 | 15 | 288 | 8.0 | 9.7 | 0.00 | 0.00 | 0.00 | ||
| 20260906025600 | 15 | 292 | 11.3 | 19.3 | 0.00 | 0.00 | 0.00 | ||
| 20260906025159 | 15 | 282 | 9.7 | 16.1 | 0.00 | 0.00 | 0.00 | ||
| 20260906024757 | 15 | 291 | 8.0 | 12.9 | 0.00 | 0.00 | 0.00 | ||
| 20260906024356 | 15 | 287 | 8.0 | 14.5 | 0.00 | 0.00 | 0.00 | ||
| 20260906023953 | 15 | 278 | 11.3 | 19.3 | 0.00 | 0.00 | 0.00 | ||
| 20260906023551 | 16 | 272 | 4.8 | 11.3 | 0.00 | 0.00 | 0.00 | ||
| 20260906023150 | 15 | 276 | 6.4 | 12.9 | 0.00 | 0.00 | 0.00 | ||
| 20260906022749 | 15 | 271 | 8.0 | 14.5 | 0.00 | 0.00 | 0.00 | ||
| 20260906022341 | 15 | 275 | 8.0 | 14.5 | 0.00 | 0.00 | 0.00 | ||
| 20260906021938 | 15 | 282 | 9.7 | 17.7 | 0.00 | 0.00 | 0.00 | ||
| 20260906021537 | 15 | 277 | 9.7 | 16.1 | 0.00 | 0.00 | 0.00 | ||
| 20260906021136 | 16 | 270 | 6.4 | 11.3 | 0.00 | 0.00 | 0.00 | ||
| 20260906020734 | 16 | 271 | 8.0 | 12.9 | 0.00 | 0.00 | 0.00 | ||
| 20260906020332 | 15 | 271 | 6.4 | 11.3 | 0.00 | 0.00 | 0.00 | ||
| 20260906015930 | 15 | 269 | 8.0 | 14.5 | 0.00 | 0.00 | 0.00 | ||
| 20260906015529 | 16 | 273 | 8.0 | 16.1 | 0.00 | 0.00 | 0.00 | ||
| 20260906015128 | 15 | 291 | 6.4 | 12.9 | 0.00 | 0.00 | 0.00 | ||
| 20260906014725 | 15 | 278 | 6.4 | 12.9 | 0.00 | 0.00 | 0.00 | ||
| 20260906014317 | 15 | 287 | 8.0 | 12.9 | 0.00 | 0.00 | 0.00 | ||
| 20260906013915 | 15 | 278 | 11.3 | 17.7 | 0.00 | 0.00 | 0.00 | ||
| 20260906013514 | 15 | 273 | 8.0 | 14.5 | 0.00 | 0.00 | 0.00 | ||
| 20260906013113 | 15 | 272 | 9.7 | 16.1 | 0.00 | 0.00 | 0.00 | ||
| 20260906012710 | 15 | 271 | 9.7 | 14.5 | 0.00 | 0.00 | 0.00 | ||
| 20260906012309 | 16 | 269 | 11.3 | 19.3 | 0.00 | 0.00 | 0.00 | ||
| 20260906011907 | 15 | 272 | 9.7 | 14.5 | 0.00 | 0.00 | 0.00 | ||
| 20260906011506 | 15 | 257 | 6.4 | 11.3 | 0.00 | 0.00 | 0.00 | ||
| 20260906011104 | 16 | 262 | 8.0 | 11.3 | 0.00 | 0.00 | 0.00 | ||
| 20260906010702 | 17 | 256 | 6.4 | 9.7 | 0.00 | 0.00 | 0.00 | ||
| 20260906010254 | 16 | 255 | 6.4 | 11.3 | 0.00 | 0.00 | 0.00 | ||
| 20260906005852 | 17 | 250 | 6.4 | 14.5 | 0.00 | 0.00 | 0.00 | ||
| 20260906005450 | 18 | 227 | 4.8 | 8.0 | 0.00 | 0.00 | 0.00 | ||
| 20260906005049 | 17 | 228 | 4.8 | 8.0 | 0.00 | 0.00 | 0.00 | ||
| 20260906004648 | 17 | 231 | 6.4 | 9.7 | 0.00 | 0.00 | 0.00 | ||
| 20260906004247 | 18 | 231 | 4.8 | 8.0 | 0.00 | 0.00 | 0.00 | ||
| 20260906003844 | 18 | 234 | 4.8 | 8.0 | 0.00 | 0.00 | 0.00 | ||
| 20260906003442 | 17 | 225 | 3.2 | 4.8 | 0.00 | 0.00 | 0.00 | ||
| 20260906002639 | 17 | 225 | 3.2 | 6.4 | 0.00 | 0.00 | 0.00 | ||
| 20260906002231 | 18 | 225 | 3.2 | 11.3 | 0.00 | 0.00 | 0.00 | ||
| 20260906001828 | 17 | 225 | 1.6 | 4.8 | 0.00 | 0.00 | 0.00 | ||
| 20260906001427 | 18 | 225 | 3.2 | 6.4 | 0.00 | 0.00 | 0.00 | ||
| 20260906001026 | 18 | 248 | 3.2 | 4.8 | 0.00 | 0.00 | 0.00 | ||
| 20260906000625 | 18 | 248 | 3.2 | 4.8 | 0.00 | 0.00 | 0.00 | ||
| 20260906000303 | 18 | 248 | 4.8 | 6.4 | 0.00 | 0.00 | 0.00 | ||
| 20260906000222 | 18 | 248 | 4.8 | 6.4 | 0.00 | 0.00 | 0.00 | ||
| 20260905235821 | 17 | 248 | 3.2 | 6.4 | 0.00 | 0.00 | 0.00 | ||
| 20260905235420 | 17 | 253 | 3.2 | 4.8 | 0.00 | 0.00 | 0.00 | ||
| 20260905235019 | 17 | 247 | 8.0 | 12.9 | 0.00 | 0.00 | 0.00 | ||
| 20260905234616 | 17 | 256 | 6.4 | 9.7 | 0.00 | 0.00 | 0.00 | ||
| 20260905234208 | 17 | 253 | 4.8 | 8.0 | 0.00 | 0.00 | 0.00 | ||
| 20260905233405 | 15 | 288 | 6.4 | 12.9 | 0.00 | 0.00 | 0.00 | ||
| 20260905233003 | 15 | 269 | 9.7 | 16.1 | 0.00 | 0.00 | 0.00 | ||
| 20260905232601 | 15 | 289 | 9.7 | 16.1 | 0.00 | 0.00 | 0.00 | ||
| 20260905232200 | 16 | 290 | 8.0 | 11.3 | 0.00 | 0.00 | 0.00 | ||
| 20260905231758 | 16 | 298 | 8.0 | 12.9 | 0.00 | 0.00 | 0.00 | ||
| 20260905231357 | 16 | 291 | 8.0 | 14.5 | 0.00 | 0.00 | 0.00 |